Weather History for KEAT - December, 2012

Change the Weather History Date:

Monday, December 3, 2012

  Actual Average Record
Temperature  
Mean Temperature 43 °F 28 °F  
Max Temperature 48 °F 33 °F 57 °F (1975)
Min Temperature 38 °F 22 °F 6 °F (1984)
Degree Days  
Heating Degree Days 22 37  
Month to date heating degree days 68 111  
Since 1 July heating degree days 1683 1993  
Cooling Degree Days 0 0  
Month to date cooling degree days 0 0  
Year to date cooling degree days 294 249  
Moisture  
Dew Point 34 °F    
Average Humidity 73    
Maximum Humidity 85    
Minimum Humidity 58    
Precipitation  
Precipitation T in 0.09 in 0.40 in (2007)
Month to date precipitation 0.50 0.27  
Year to date precipitation 21.04 14.82  
Snow  
Snow 0.00 in 0.50 in - ()
Month to date snowfall 0.0 1.4  
Since 1 July snowfall 7.2 9.3  
Snow Depth 0.00 in    
Sea Level Pressure  
Sea Level Pressure 29.91 in    
Wind  
Wind Speed 7 mph (East)    
Max Wind Speed 64 mph    
Max Gust Speed 74 mph    
Visibility 10 miles    
Events      
T = Trace of Precipitation, MM = Missing Value Source: NWS Daily Summary

Daily Weather History Graph

Daily Weather History Graph

Search for Another Location

Airport or City:

Trip Planner

Search our weather history database for the weather conditions in past years. The results will help you decide how hot, cold, wet, or windy it might be!

Date:

Astronomy

Dec. 03, 2012 Rise Set
Actual Time 7:30 AM PST 4:11 PM PST
Civil Twilight 6:55 AM PST 4:46 PM PST
Nautical Twilight 6:16 AM PST 5:25 PM PST
Astronomical Twilight 5:39 AM PST 6:02 PM PST
Moon 9:15 PM PST (12/3) 10:46 AM PST (12/3)
Length of Visible Light 9h 51m
Length of Day
8h 40m
Waning Gibbous, 77% of the Moon is Illuminated
Dec 3
Waning Gibbous
Dec 6
Last Quarter
Dec 13
New
Dec 19
First Quarter
Dec 28
Full

Hourly Weather History & Observations

Time (PST) Temp. Windchill Dew Point Humidity Pressure Visibility Wind Dir Wind Speed Gust Speed Precip Events Conditions
12:55 AM 37.0 °F 33.3 °F 30.9 °F 79% 29.79 in 10.0 mi NE 4.6 mph - N/A   Mostly Cloudy
1:55 AM 35.1 °F 31.0 °F 30.9 °F 85% 29.81 in 10.0 mi NW 4.6 mph - N/A   Clear
2:55 AM 35.1 °F 32.2 °F 30.9 °F 85% 29.83 in 10.0 mi NE 3.5 mph - N/A   Partly Cloudy
3:55 AM 34.0 °F - 30.0 °F 85% 29.83 in 10.0 mi Calm Calm - N/A   Scattered Clouds
4:55 AM 39.0 °F 34.8 °F 32.0 °F 76% 29.84 in 10.0 mi ENE 5.8 mph - N/A   Partly Cloudy
5:55 AM 37.9 °F 30.9 °F 32.0 °F 79% 29.86 in 10.0 mi East 10.4 mph - N/A   Partly Cloudy
7:55 AM 39.0 °F 34.8 °F 30.9 °F 73% 29.90 in 8.0 mi East 5.8 mph - N/A   Partly Cloudy
8:55 AM 39.0 °F 36.8 °F 33.1 °F 79% 29.94 in 10.0 mi Variable 3.5 mph - N/A   Overcast
9:55 AM 41.0 °F - 36.0 °F 82% 29.97 in 10.0 mi Calm Calm - N/A   Overcast
11:55 AM 43.0 °F 41.3 °F 36.0 °F 76% 29.99 in 10.0 mi SSW 3.5 mph - N/A   Mostly Cloudy
12:55 PM 44.1 °F - 36.0 °F 73% 29.99 in 10.0 mi North - - N/A   Squalls
1:48 PM 44.6 °F 31.0 °F 35.6 °F 71% 29.96 in 10.0 mi East 64.4 mph 73.6 mph N/A   Squalls
1:55 PM 44.1 °F - 36.0 °F 73% 29.99 in 10.0 mi North - - N/A   Clear
2:55 PM 45.0 °F - 37.0 °F 74% 29.99 in 10.0 mi Calm Calm - N/A   Scattered Clouds
3:55 PM 45.0 °F - 35.1 °F 68% 30.00 in 10.0 mi Calm Calm - N/A   Mostly Cloudy
4:55 PM 44.1 °F 40.1 °F 36.0 °F 73% 29.99 in 10.0 mi NE 6.9 mph - N/A   Overcast
5:55 PM 44.1 °F - 36.0 °F 73% 29.98 in 10.0 mi Calm Calm - N/A   Overcast
6:55 PM 45.0 °F 41.8 °F 36.0 °F 71% 29.96 in 10.0 mi East 5.8 mph - 0.00 in   Overcast
7:55 PM 46.9 °F - 36.0 °F 66% 29.95 in 10.0 mi East 4.6 mph - N/A   Overcast
8:55 PM 48.0 °F - 37.0 °F 66% 29.91 in 10.0 mi East 9.2 mph - N/A   Overcast
9:55 PM 46.0 °F 42.5 °F 36.0 °F 68% 29.88 in 10.0 mi SSE 6.9 mph - N/A   Mostly Cloudy
10:18 PM 50.0 °F - 35.6 °F 58% 29.85 in 10.0 mi ESE 10.4 mph - N/A   Overcast
10:55 PM 48.0 °F - 36.0 °F 63% 29.85 in 10.0 mi East 10.4 mph - N/A   Mostly Cloudy
11:55 PM 46.9 °F - 36.0 °F 66% 29.82 in 10.0 mi ESE 5.8 mph - N/A   Overcast